Terminal Aerodrome Forecast
Issued by NWS Knoxville/Tri Cities, TN

Home | Current Version | Previous Version | Text Only | Print | Product List | Glossary On
Versions: 1 2 3 4 5 6 7 8 9 10 11 12 13 14 15 16 17 18 19 20 21 22 23 24 25 26 27 28 29 30 31 32 33 34 35 36 37 38
000
FTUS44 KMRX 070526
TAFCHA
TAF
KCHA 070526Z 0706/0806 00000KT P6SM SKC
     FM070900 00000KT 3SM BR SCT015
     FM071300 20004KT P6SM SCT035 BKN120
     FM071800 23005KT P6SM SCT045 SCT100
     FM080100 VRB02KT P6SM FEW050 SCT250=

USA.gov is the U.S. government's official web portal to all federal, state and local government web resources and services.